Regional Weather Roundup
Issued by NWS

Home | Current Version | Previous Version | Text Only | Print | Product List | Glossary On
Versions: 1 2 3 4 5 6 7 8 9 10 11 12 13 14 15 16 17 18 19 20 21 22 23 24 25 26 27 28 29 30 31 32 33 34 35 36 37 38 39 40 41 42 43 44 45 46 47 48 49 50
000
ASUS43 KDTX 201910
RWRMI
MICHIGAN HOURLY REGIONAL WEATHER ROUNDUP
NATIONAL WEATHER SERVICE DETROIT/PONTIAC MI
300 PM EDT WED SEP 20 2017

NOTE: "FAIR" INDICATES FEW OR NO CLOUDS BELOW 12,000 FEET WITH NO
SIGNIFICANT WEATHER AND/OR OBSTRUCTION TO VISIBILITY.

MIZ047>049-052>055-059>063-066>070-074>076-081>083-202000-
SOUTHEAST LOWER MICHIGAN

CITY           SKY/WX    TMP DP  RH WIND       PRES   REMARKS
ADRIAN         SUNNY     82  65  56 SW8       30.00S
ALMA           MOSUNNY   80  61  53 CALM      29.98F
ANN ARBOR      MOSUNNY   81  65  58 S8        29.98F
BAD AXE        PTSUNNY   78  65  64 SE3       30.00F
CARO           MOSUNNY   76  65  68 SE5       29.99F
DETROIT CITY   MOSUNNY   81  66  60 SW6       29.99S
DETROIT        MOSUNNY   81  66  60 S5        30.00F
FLINT          PTSUNNY   80  64  58 VRB6      29.99F
GROSSE ILE     SUNNY     75  68  79 SE7       29.99S
HILLSDALE      PTSUNNY   79  64  61 SW8       30.00F
HOWELL         MOSUNNY   81  62  52 SW9       30.00S

CITY           SKY/WX    TMP DP  RH WIND       PRES   REMARKS
JACKSON        SUNNY     83  62  49 SW12      29.99S
LAMBERTVILLE   MOSUNNY   83  66  56 SW5       29.98F
LANSING        MOSUNNY   83  60  45 VRB6      29.99F
LAPEER         PTSUNNY   78  64  61 S5        30.00F
MASON          SUNNY     83  62  47 W8        29.99S
MONROE         MOSUNNY   81  66  59 S3        29.99S
MT. CLEMENS    MOSUNNY   79  71  77 SE8       29.99S
PONTIAC        PTSUNNY   80  66  62 S9        29.98F
PORT HURON     CLOUDY    81  68  65 S7        30.00R
TRI CITIES     PTSUNNY   79  66  64 S8        29.99F
MIDLAND        CLOUDY    80  65  59 S6        29.98S
TROY           MOSUNNY   80  65  59 SE3       30.01F
SAGINAW HB     CLOUDY    77  64  65 S8        29.98F
$$
MIZ043>046-050>051-056>058-064>065-071>073-077>080-202000-
SOUTHWEST LOWER MICHIGAN

CITY           SKY/WX    TMP DP  RH WIND       PRES   REMARKS
BATTLE CREEK   PTSUNNY   83  65  54 W6        30.00S
BENTON HARBOR  PTSUNNY   85  68  56 S8        29.94F
BIG RAPIDS     MOSUNNY   79  62  56 S6G17     29.96F
COLDWATER      MOSUNNY   82  65  55 SW7       30.00S
FREMONT        FAIR      83  62  48 SE7       29.94F
HOLLAND        SUNNY     86  66  51 S10       29.95F
GRAND RAPIDS   MOSUNNY   84  62  47 VRB7      29.96F
IONIA          FAIR      83  57  40 S6        29.97F
KALAMAZOO      MOSUNNY   83  63  50 CALM      29.98F
LUDINGTON      MOSUNNY   82  64  55 SE10      29.89F
MARSHALL       MOSUNNY   83  64  52 W3        29.99S
MOUNT PLEASANT MOSUNNY   80  63  57 SE8       29.97F
MUSKEGON       MOSUNNY   87  63  44 SE8       29.93F
SOUTH HAVEN    SUNNY     85  67  54 SE6       29.95F
$$
MIZ016>042-202000-
NORTHERN LOWER MICHIGAN

CITY           SKY/WX    TMP DP  RH WIND       PRES   REMARKS
ALPENA         SUNNY     76  69  79 E9        29.97F
BEAVER ISLAND  CLOUDY    76  65  68 SE8G17    29.92R
BELLAIRE       CLOUDY    80  63  55 S16       29.91F
CADILLAC       SUNNY     78  62  56 SE10      29.97F
CHARLEVOIX     MOSUNNY   80  64  58 SE9G20    29.93F
FRANKFORT      CLOUDY    83  61  47 S14       29.88F
GAYLORD        PTSUNNY   76  63  64 S13       29.96F
GRAYLING       CLOUDY    75  62  64 S14       29.98F
HARBOR SPRINGS CLOUDY    80  63  56 SE10      29.91F
HOUGHTON LAKE  CLOUDY    74  64  71 VRB6      29.98F
MANISTEE       CLOUDY    81  64  56 VRB6G16   29.89F
OSCODA         PTSUNNY   78  64  62 S13       29.97F
PELLSTON       CLOUDY    80  65  59 SE10      29.92F
ROGERS CITY    MOSUNNY   76  67  71 SE10G17   29.96F
TRAVERSE CITY  CLOUDY    83  63  50 S8        29.89F
$$
MIZ007>008-015-202000-
EASTERN UPPER MICHIGAN

CITY           SKY/WX    TMP DP  RH WIND       PRES   REMARKS
KINROSS        CLOUDY    72  65  78 SE17G25   29.94F
MACKINAC ISLAN CLOUDY    69  67  93 E7G18     29.93S
NEWBERRY       CLOUDY    72  67  86 S14       29.90R
S. S. MARIE    CLOUDY    69  65  86 E9G18     29.93F
MUNISING         N/A     72  65  78 S15G28    29.80F
$$
MIZ004>006-011>014-085-202000-
CENTRAL UPPER MICHIGAN

CITY           SKY/WX    TMP DP  RH WIND       PRES   REMARKS
MANISTIQUE     CLOUDY    68  62  81 SE10G18   29.88F
ESCANABA       CLOUDY    69  66  90 SE14      29.85F
MENOMINEE      MOSUNNY   73  65  75 S16G28    29.83F
SAWYER-GWINN   MOSUNNY   70  61  73 S20G26    29.83F
$$
MIZ001>003-009>011-084-202000-
WESTERN UPPER MICHIGAN

CITY           SKY/WX    TMP DP  RH WIND       PRES   REMARKS
IRON MOUNTAIN  CLOUDY    69  63  81 SE9       29.82F
HOUGHTON       CLOUDY    71  62  73 SW14G23   29.77R
COPPER HARBOR    N/A     70  60  70 SW9       29.75R
IRONWOOD       CLOUDY    68  64  87 SW15G21   29.76R
$$

ABBREVIATIONS USED IN REMARKS
   TC - TEMPERATURE IN CELSIUS
  WCI - WIND CHILL INDEX
   HX - HEAT INDEX
  VSB - VISIBILITY





USA.gov is the U.S. government's official web portal to all federal, state and local government web resources and services.